Flag for Syria Weather past 2 weeks in Damascus, Syria

Now
37 °F

Chilly.


Feels Like: 37 °F
Forecast: 31 / 58 °F
Wind: No wind

Location: Damascus Int. Airport

Current Time: Dec 20, 2014 at 2:34:46 AM

Latest Report: Dec 20, 2014 at 2:00 AM


Visibility: 0 mi

Pressure: 30.12 "Hg

Humidity: 100%

Dew point: 37 °F

Location of DamascusLocation

Historic Weather in Damascus — Graph

°F

Damascus temperature yesterday

Maximum temperature yesterday: 57 °F (at 2:00 PM)
Minimum temperature yesterday: 37 °F (at 5:00 AM)
Average temperature yesterday: 45 °F

Past Weeks' High & Low Weather Summary

 TemperatureHumidityPressure
High75 °F (Dec 16, 1:00 PM)100% (Dec 6, 5:00 AM)30.36 "Hg (Dec 6, 5:00 AM)
Low34 °F (Dec 16, 5:00 AM)29% (Dec 16, 1:00 PM)29.92 "Hg (Dec 9, 1:00 PM)
Average50 °F80%30.14 "Hg
* Reported Dec 5 1:00 AM — Dec 20 1:00 AM, Damascus, Weather by CustomWeather, © 2014

Note: Actual official high and low records may vary slightly from our data, if they occured in-between our weather recording intervals... More about our weather records

Advertising

Damascus weather history for previous 24 hours

 ConditionsComfort  
Time TempWeatherWind HumidityBarometerVisibility
1:00 AM
Dec 20
37 °FChilly.No wind100%30.12 "Hg0 mi
12:00 AM37 °FRain. Overcast.No wind100%30.12 "Hg0 mi
11:00 PM
Dec 19
39 °FRain. Overcast.No wind100%30.12 "Hg0 mi
10:00 PM41 °FQuite cool.No wind100%30.12 "Hg1 mi
9:00 PM41 °FQuite cool.No wind100%30.12 "Hg2 mi
8:00 PM46 °FClear.No wind87%30.12 "Hg10 mi
7:00 PM48 °FClear.No wind87%30.09 "Hg10 mi
6:00 PM50 °FClear.No wind88%30.09 "Hg10 mi
5:00 PM52 °FPassing clouds.No wind82%30.09 "HgN/A
4:00 PM55 °FScattered clouds.No wind82%30.09 "HgN/A
3:00 PM57 °FScattered clouds.No wind77%30.07 "HgN/A
2:00 PM57 °FScattered clouds.No wind72%30.07 "HgN/A
1:00 PM54 °FFog.No wind77%30.07 "Hg2 mi
12:00 PM52 °FFog.No wind82%30.09 "Hg2 mi
11:00 AM50 °FFog.No wind88%30.09 "Hg2 mi
10:00 AM45 °FFog.No wind93%30.12 "Hg2 mi
9:00 AM41 °FFog.No wind93%30.12 "Hg1 mi
8:00 AM39 °FChilly.No wind100%30.12 "Hg1 mi
7:00 AM37 °FChilly.No wind93%30.09 "Hg1 mi
6:00 AM37 °FChilly.No wind93%30.09 "Hg1 mi
5:00 AM37 °FChilly.No wind93%30.09 "Hg2 mi
4:00 AM39 °FChilly.No wind93%30.09 "Hg2 mi
3:00 AM39 °FChilly.No wind93%30.09 "HgN/A
2:00 AM39 °FChilly.No wind93%30.09 "Hg2 mi
Weather by CustomWeather, © 2014

See weather overviewHow to use our weather pages